Flag for Germany Weather past 2 weeks in Bretten, Baden-Württemberg, Germany

Now
45 °F

Passing clouds.


Feels Like: 39 °F
Forecast: 38 / 43 °F
Wind: 10 mph from West

Location: Baden Wurttemberg - Neuostheim

Current Time: Dec 20, 2014 at 5:32:05 PM

Latest Report: Dec 20, 2014 at 4:50 PM


Visibility: N/A

Pressure: 30.21 "Hg

Humidity: 81%

Dew point: 39 °F

Location of BrettenLocation

Historic Weather in Bretten — Graph

°F

Bretten temperature yesterday

Maximum temperature yesterday: 55 °F (at 12:20 AM)
Minimum temperature yesterday: 48 °F (at 8:50 PM)
Average temperature yesterday: 52 °F

Past Weeks' High & Low Weather Summary

 TemperatureHumidityPressure
High55 °F (Dec 18, 6:20 PM)100% (Dec 6, 7:50 AM)30.45 "Hg (Dec 6, 7:50 AM)
Low34 °F (Dec 8, 8:50 PM)57% (Dec 8, 1:50 PM)29.68 "Hg (Dec 12, 4:20 PM)
Average44 °F85%30.05 "Hg
* Reported Dec 5 4:20 PM — Dec 20 4:20 PM, Bretten, Weather by CustomWeather, © 2014

Note: Actual official high and low records may vary slightly from our data, if they occured in-between our weather recording intervals... More about our weather records

Advertising

Bretten weather history for previous 24 hours

 ConditionsComfort  
Time TempWeatherWind HumidityBarometerVisibility
4:20 PM
Dec 20
41 °FSprinkles. Partly sunny.13 mph87%30.21 "HgN/A
3:50 PM45 °FMostly cloudy.10 mph76%30.21 "HgN/A
3:20 PM45 °FPartly sunny.12 mph76%30.21 "HgN/A
2:50 PM46 °FBroken clouds.13 mph71%30.18 "HgN/A
2:20 PM46 °FPartly sunny.12 mph66%30.21 "HgN/A
1:50 PM45 °FMostly cloudy.12 mph71%30.21 "HgN/A
1:20 PM46 °FLight rain. Partly sunny.12 mph66%30.21 "HgN/A
12:50 PM46 °FBroken clouds.12 mph66%30.24 "HgN/A
12:20 PM45 °FBroken clouds.8 mph76%30.24 "HgN/A
11:50 AM45 °FBroken clouds.8 mph76%30.24 "HgN/A
11:20 AM45 °FMostly cloudy.7 mph76%30.27 "HgN/A
10:50 AM43 °FOvercast.7 mph81%30.27 "HgN/A
10:20 AM45 °FPartly sunny.6 mph71%30.30 "HgN/A
9:50 AM43 °FPartly sunny.6 mph76%30.27 "HgN/A
9:20 AM43 °FPartly sunny.6 mph76%30.30 "HgN/A
8:50 AM41 °FPassing clouds.6 mph81%30.30 "HgN/A
8:20 AM41 °FPassing clouds.12 mph76%30.27 "HgN/A
7:50 AM41 °FPassing clouds.10 mph81%30.27 "HgN/A
7:20 AM41 °FPassing clouds.9 mph81%30.27 "HgN/A
8:50 PM
Dec 19
48 °FLight rain. Passing clouds.7 mph94%30.07 "HgN/A
8:20 PM50 °FLight rain. Partly cloudy.7 mph94%30.07 "HgN/A
7:50 PM52 °FLight rain. Passing clouds.6 mph94%30.04 "Hg5 mi
7:20 PM52 °FLight rain. Passing clouds.13 mph94%30.01 "Hg5 mi
6:50 PM52 °FLight rain. Overcast.13 mph88%30.01 "HgN/A
6:20 PM52 °FPassing clouds.13 mph88%30.01 "HgN/A
5:50 PM52 °FLight rain. Overcast.13 mph88%29.98 "HgN/A
5:20 PM52 °FLight rain. Overcast.13 mph88%30.01 "HgN/A
Weather by CustomWeather, © 2014

See weather overviewHow to use our weather pages